Regional Weather Roundup
Issued by NWS

Home | Current Version | Previous Version | Graphics & Text | Print | Product List | Glossary On
Versions: 1 2 3 4 5 6 7 8 9 10 11 12 13 14 15 16 17 18 19 20 21 22 23 24 25 26 27 28 29 30 31 32 33 34 35 36 37 38 39 40 41 42 43 44 45 46 47 48 49 50
000
ASUS43 KDMX 262201
RWRIA

WEATHER ROUNDUP FOR IOWA
NATIONAL WEATHER SERVICE DES MOINES IA
500 PM CDT FRI MAY 26 2017

NOTE: "FAIR" INDICATES FEW OR NO CLOUDS BELOW 12,000 FEET WITH NO
SIGNIFICANT WEATHER AND/OR OBSTRUCTIONS TO VISIBILITY.

* - THESE STATIONS ARE NOT NWS STATIONS...THUS NOT UNDER NWS
QUALITY CONTROL.  THEY ALSO DO NOT REPORT WEATHER SUCH
AS PRECIPITATION OR FOG.

IAZ001>003-012>014-020>022-031>034-043>046-262300-
   NORTHWEST IOWA

CITY           SKY/WX    TMP DP  RH WIND       PRES   REMARKS
CARROLL *      CLOUDY    82  48  30 NW14      29.78R HX  81
CHEROKEE *     CLOUDY    77  45  32 W10G17    29.80S
DENISON *      PTSUNNY   77  48  36 NW10      29.81S
LE MARS *      SUNNY     77  45  31 W14       29.82S
ORANGE CITY *  SUNNY     73  48  40 NW14G22   29.82R
SHELDON *      SUNNY     77  41  27 NW14G21   29.79S
SIOUX CITY     SUNNY     78  49  35 NW13      29.80S
SPENCER        CLOUDY    79  46  31 W16       29.79R
STORM LAKE *   MOSUNNY   79  45  29 W12G17    29.79F
$$

IAZ055>058-069>071-079>083-090>094-262300-
   SOUTHWEST IOWA

CITY           SKY/WX    TMP DP  RH WIND       PRES   REMARKS
ATLANTIC *     SUNNY     79  55  44 N13G21    29.78R
AUDUBON *      MOSUNNY   81  50  34 NW10G16   29.80R HX  80
CLARINDA *     MOSUNNY   84  55  37 N13       29.79S HX  83
COUNCIL BLFS * SUNNY     79  48  34 NW13      29.81R
CRESTON *      SUNNY     81  57  44 N8        29.79S HX  81
HARLAN  *      CLOUDY    79  48  34 N12       29.83S
LAMONI         MOSUNNY   81  64  56 N7        29.78R HX  82
RED OAK *      MOSUNNY   82  57  42 NW10      29.78S HX  82
SHENANDOAH *   MOSUNNY   82  55  39 NW13G18   29.78S HX  82
$$

IAZ047>049-059>061-072>074-084-262300-
   CENTRAL IOWA

CITY           SKY/WX    TMP DP  RH WIND       PRES   REMARKS
AMES           MOSUNNY   81  61  50 N6        29.76S HX  82
ANKENY *       SUNNY     79  57  47 NW6       29.77S HX  80
BOONE *        MOSUNNY   79  61  53 NW10      29.77R HX  80
CHARITON *     MOSUNNY   77  61  57 NW10      29.78R
DES MOINES     MOSUNNY   82  59  45 MISG      29.77R HX  82
GRINNELL*      SUNNY     71  62  72 NE9       29.80R
KNOXVILLE *    SUNNY     77  59  53 VRB3      29.77R
MARSHALLTOWN   MOSUNNY   76  59  55 CALM      29.77S
NEWTON *       MOSUNNY   77  57  50 N6        29.77R
PELLA *        SUNNY     79  56  45 N3        29.78R HX  80
PERRY *          N/A     83  52  34 NW10      29.77R HX  81
$$

IAZ004>006-015-016-023>025-035-036-262300-
   NORTH CENTRAL IOWA

CITY           SKY/WX    TMP DP  RH WIND       PRES   REMARKS
ALGONA *       MOSUNNY   79  46  31 W10G20    29.78R
CLARION *      MOSUNNY   79  57  47 W9        29.77S HX  80
ESTHERVILLE    SUNNY     77  47  34 NW18      29.77S
FORT DODGE *   CLOUDY    79  57  47 N6        29.78S HX  80
MASON CITY     MOSUNNY   76  56  49 W3        29.79S
FOREST CITY *    N/A     81  43  26 CALM      29.77S
WEBSTER CITY * MOSUNNY   79  55  44 NW9       29.75S
IOWA FALLS *     N/A     77  56  48 CALM      29.78S
$$

IAZ007>011-017>019-026>030-037>042-050>054-066-262300-
   NORTHEAST IOWA

CITY           SKY/WX    TMP DP  RH WIND       PRES   REMARKS
CEDAR RAPIDS   CLOUDY    66  61  84 NE5       29.79R
CHARLES CITY * SUNNY     72  57  60 S8        29.80S
CLINTON *      CLOUDY    65  61  87 E14       29.78S
DECORAH *      MOSUNNY   68  57  68 S8        29.80R
DUBUQUE        CLOUDY    64  59  83 E7        29.80S
MONTICELLO *   CLOUDY    68  61  77 E8        29.79S
OELWEIN *      PTSUNNY   70  59  68 SE9       29.81R
WATERLOO       MOSUNNY   72  59  63 SE7       29.79R
$$

IAZ064-065-067-068-078-262300-
   EAST CENTRAL IOWA

CITY           SKY/WX    TMP DP  RH WIND       PRES   REMARKS
DAVENPORT      CLOUDY    67  61  81 NE9       29.78R
IOWA CITY      CLOUDY    69  60  73 NE5       29.80R
MT. PLEASANT * SUNNY     73  60  65 NW10      29.77S
MUSCATINE *    CLOUDY    68  61  77 NW7       29.78R
QUAD CITIES    CLOUDY    69  61  75 NE7       29.76R
$$

IAZ062-063-075>077-085>089-095>099-262300-
   SOUTHEAST IOWA

CITY           SKY/WX    TMP DP  RH WIND       PRES   REMARKS
BURLINGTON     MOSUNNY   74  64  71 CALM      29.76R
FAIRFIELD *    MOSUNNY   72  63  73 N8        29.78R
FORT MADISON * MOSUNNY   75  64  69 W6        29.77R
KEOKUK *       PTSUNNY   77  64  65 N7G15     29.75S
OSKALOOSA *      N/A     73  63  71 NE7       29.79R
OTTUMWA        MOSUNNY   76  63  64 N8        29.77R
WASHINGTON *   CLOUDY    68  63  83 N7        29.79S
$$

ABBREVIATIONS USED IN REMARKS
   TC - TEMPERATURES IN CELSIUS
  WCI - WIND CHILL INDEX
   HX - HEAT INDEX
  VSB - VISIBILITY
$$





USA.gov is the U.S. government's official web portal to all federal, state and local government web resources and services.